Simultaneous Nadir Overpasses (SNOs) Predictions

Prediction of SNOs between GOES-17 and METOP-B Satellite Orbit:

Table of predicted SNOs for the next 14.0 days since TLE Epoch: 8/5/2023
Index Date Time (GOES-17) GOES-17 Lat,Lon METOP-B Lat,Lon Distance(km) Time Diff (sec)
1 08/07/2023 04:30:07 -0.00,-104.70 -0.08,-104.93 27.10 80
2 08/09/2023 16:28:19 0.00,-104.73 -0.04,-104.51 25.26 80
3 08/12/2023 04:23:59 -0.00,-104.70 0.13,-104.11 67.59 80
4 08/13/2023 16:42:50 0.00,-104.73 0.87,-108.68 449.74 80
5 08/14/2023 16:24:50 0.01,-104.73 -0.21,-103.68 119.76 80
6 08/16/2023 04:43:49 -0.01,-104.71 -0.83,-108.27 406.07 80
7 08/17/2023 04:20:29 -0.01,-104.71 0.32,-103.28 163.32 80
8 08/18/2023 16:39:20 0.01,-104.74 0.73,-107.84 353.81 80
